Altus, OK

1:02 AM CDT on August 24, 2016 (GMT -0500)
Altus Air Force Base

Weather History for KLTS - May, 2014

Change the Weather History Date:

Monday, May 19, 2014

  Actual Average Record
Temperature  
Mean Temperature 79 °F -  
Max Temperature 94 °F 83 °F 100 °F (1998)
Min Temperature 64 °F 60 °F 50 °F (2000)
Cooling Degree Days 14    
Growing Degree Days 29 (Base 50)    
Moisture  
Dew Point 57 °F    
Average Humidity 47    
Maximum Humidity 77    
Minimum Humidity 26    
Precipitation  
Precipitation 0.00 in - - ()
Sea Level Pressure  
Sea Level Pressure 29.77 in    
Wind  
Wind Speed 17 mph (SSE)    
Max Wind Speed 29 mph    
Max Gust Speed 36 mph    
Visibility 10 miles    
Events      
Averages and records for this station are not official NWS values.
T = Trace of Precipitation, MM = Missing Value Source: NWS Daily Summary

Daily Weather History Graph

Daily Weather History Graph

Search for Another Location

Airport or City:

Trip Planner

Search our weather history database for the weather conditions in past years. The results will help you decide how hot, cold, wet, or windy it might be!

Date:

Astronomy

May. 19, 2014 Rise Set
Actual Time 6:31 AM CDT 8:36 PM CDT
Civil Twilight 6:03 AM CDT 9:04 PM CDT
Nautical Twilight 5:28 AM CDT 9:38 PM CDT
Astronomical Twilight 4:51 AM CDT 10:15 PM CDT
Moon 12:28 AM CDT (5/19) 11:26 AM CDT (5/19)
Length of Visible Light 15h 01m
Length of Day
14h 04m
Waning Gibbous, 71% of the Moon is Illuminated
May 19
Waning Gibbous
May 21
Last Quarter
May 28
New
Jun 5
First Quarter
Jun 12
Full

Hourly Weather History & Observations

Time (CDT) Temp. Heat Index Dew Point Humidity Pressure Visibility Wind Dir Wind Speed Gust Speed Precip Events Conditions
12:58 AM 72.1 °F - 56.3 °F 57% 29.83 in 10.0 mi SSE 13.8 mph - N/A   Clear
1:58 AM 71.4 °F - 56.7 °F 60% 29.82 in 10.0 mi SE 12.7 mph - N/A   Clear
2:58 AM 70.0 °F - 57.0 °F 63% 29.81 in 10.0 mi SE 15.0 mph - N/A   Clear
3:58 AM 68.9 °F - 56.8 °F 65% 29.80 in 10.0 mi SSE 13.8 mph - N/A   Clear
4:58 AM 67.1 °F - 56.8 °F 70% 29.81 in 10.0 mi SE 10.4 mph - N/A   Clear
5:58 AM 65.1 °F - 56.8 °F 75% 29.81 in 10.0 mi SE 11.5 mph - N/A   Clear
6:58 AM 64.4 °F - 57.2 °F 77% 29.83 in 10.0 mi SSE 11.5 mph - N/A   Clear
9:58 AM 75.7 °F - 60.1 °F 58% 29.84 in 10.0 mi South 25.3 mph 33.4 mph N/A   Clear
10:58 AM 79.7 °F - 60.6 °F 52% 29.83 in 10.0 mi South 24.2 mph 28.8 mph N/A   Clear
11:58 AM 82.8 °F 83.3 °F 61.0 °F 48% 29.82 in 10.0 mi South 21.9 mph 31.1 mph N/A   Clear
12:58 PM 86.0 °F 85.9 °F 60.3 °F 42% 29.80 in 10.0 mi South 21.9 mph 29.9 mph N/A   Scattered Clouds
1:58 PM 88.9 °F 88.3 °F 59.4 °F 37% 29.78 in 10.0 mi South 25.3 mph 29.9 mph N/A   Mostly Cloudy
2:58 PM 90.5 °F 89.5 °F 58.3 °F 34% 29.75 in 10.0 mi South 23.0 mph 31.1 mph N/A   Partly Cloudy
3:58 PM 93.7 °F 93.0 °F 58.5 °F 31% 29.73 in 10.0 mi South 23.0 mph 34.5 mph N/A   Clear
4:58 PM 93.9 °F 92.9 °F 57.9 °F 30% 29.71 in 10.0 mi South 28.8 mph 35.7 mph N/A   Clear
5:58 PM 94.1 °F 92.5 °F 55.9 °F 28% 29.70 in 10.0 mi South 23.0 mph 33.4 mph N/A   Clear
6:58 PM 92.8 °F - 52.7 °F 26% 29.70 in 10.0 mi South 23.0 mph 28.8 mph 0.00 in   Clear
7:58 PM 91.0 °F - 52.3 °F 27% 29.70 in 10.0 mi South 20.7 mph 32.2 mph N/A   Clear
8:58 PM 85.8 °F 84.5 °F 55.8 °F 36% 29.72 in 10.0 mi SSE 19.6 mph - N/A   Clear
9:58 PM 83.7 °F 82.7 °F 55.2 °F 38% 29.73 in 10.0 mi SSE 25.3 mph 31.1 mph N/A   Clear
10:58 PM 81.5 °F 81.0 °F 55.0 °F 40% 29.75 in 10.0 mi SSE 18.4 mph - N/A   Clear
11:58 PM 78.3 °F - 56.1 °F 46% 29.76 in 10.0 mi SE 15.0 mph - N/A   Clear